Regional Weather Roundup
Issued by NWS Jackson, KY

Home | Current Version | Previous Version | Graphics & Text | Print | Product List | Glossary On
Versions: 1 2 3 4 5 6 7 8 9 10 11 12 13 14 15 16 17 18 19 20 21 22 23 24 25 26 27 28 29 30 31 32 33 34 35 36 37 38 39 40 41 42 43 44 45 46 47 48 49 50
000
ASUS43 KJKL 250910
RWRJKL

EAST KENTUCKY HOURLY WEATHER ROUNDUP
NATIONAL WEATHER SERVICE JACKSON KY
500 AM EDT SAT OCT 25 2014

NOTE: "FAIR" INDICATES FEW OR NO CLOUDS BELOW 12,000 FEET WITH
NO SIGNIFICANT WEATHER AND/OR OBSTRUCTIONS TO VISIBILITY.

* THESE REPORTS ARE NOT UNDER NWS QUALITY CONTROL AND MAY NOT
  REPORT WEATHER SUCH AS PRECIPITATION AND FOG.

KYZ079-080-083-085-087-088-110-112-115-119-120-251000
...EASTERN KENTUCKY...

CITY           SKY/WX    TMP DP  RH WIND       PRES   REMARKS
JACKSON        CLEAR     44  40  85 CALM      30.06S
LONDON         CLEAR     41  38  89 CALM      30.08R
SOMERSET*      CLEAR     39  39 100 CALM      30.10R
MONTICELLO*    CLEAR     39  39 100 CALM      30.11R FOG
WILLIAMSBURG*  CLEAR     37  37 100 CALM      30.09R
MIDDLESBORO*   FOG       38  38 100 CALM      30.10F VSB 1/4
HARLAN APT*    CLOUDY    37  37 100 CALM      30.09S VSB<1/4
BLACK MTN*       N/A     43  41  93 N3          N/A
PIKEVILLE APT* CLEAR     43  41  93 S5        30.06S
BIG SANDY*     SUNNY     43  41  93 CALM      30.06S
MOREHEAD APT*  PTSUNNY   43  41  93 S3        30.07S
$$

KYZ035-036-041-042-044-050-067-078-099-251000
...CENTRAL KENTUCKY...

CITY           SKY/WX    TMP DP  RH WIND       PRES   REMARKS
MT STERLING*   CLEAR     43  41  93 SW6       30.06F
FLEMING/MASON* CLEAR     45  39  81 S7        30.04F
DANVILLE*      CLEAR     43  39  87 SW3       30.07F
RICHMOND*      CLEAR     45  39  81 S3        30.06S
LEXINGTON      CLEAR     46  40  79 S8        30.04F
FRANKFORT      PTCLDY    43  40  89 CALM      30.03F
$$

KYZ091>093-OHZ055-061-077-WVZ005-015-034-035-042-251000
...SOUTHERN OHIO/WEST VIRGINIA...

CITY           SKY/WX    TMP DP  RH WIND       PRES   REMARKS
COVINGTON      CLOUDY    49  43  80 S5        30.01F
COLUMBUS       CLOUDY    46  38  73 SE3       29.99F
DAYTON         MOCLDY    50  45  83 SW9       29.99F
WILMINGTON     PTCLDY    47  40  76 SW5       30.00F
HUNTINGTON     CLEAR     42  41  96 S6        30.03F
CHARLESTON     PTCLDY    38  36  92 CALM      30.04S FOG
PINEVILLE*     FOG       38  38 100 MISG      30.12S VSB 1/4
BECKLEY        CLEAR     39  36  89 S7        30.05S WCI  34
BLUEFIELD      CLEAR     40  35  83 W8        30.07S WCI  34
$$

VAZ002-007-008-TNZ017-027-036-066-071-251000
...SOUTHWEST VIRGINIA/EAST TENNESSEE...

CITY           SKY/WX    TMP DP  RH WIND       PRES   REMARKS
WISE*          CLEAR     43  36  75 SW3       30.08S
JONESVILLE*    SUNNY     36  36 100 CALM      30.11R
ABINGDON*      CLEAR     38  37  97 CALM      30.07S
BRISTOL        PTCLDY    36  35  96 CALM      30.08F FOG
KNOXVILLE      CLEAR     42  41  96 CALM      30.07
OAK RIDGE      PTCLDY    41  39  93 CALM      30.09S FOG
CROSSVILLE     CLEAR     42  38  85 CALM      30.10R
NASHVILLE      PTCLDY    47  45  93 CALM      30.09S
$$

...KEY TO REMARKS...
VSB - VISIBILITY IN MILES
WCI - WIND CHILL INDEX
HX  - HEAT INDEX

$$



USA.gov is the U.S. government's official web portal to all federal, state and local government web resources and services.